CZ-2C R/B (43610 NORAD) Tracking and Keplerian Element Data

This shows tracking and keplerian element data for the satellite.

Feedback or suggestion? Click here.




ElementValue
Catalog43610
NameCZ-2C R/B
Epoch Orbit422
Epoch Day279.22271274
Epoch Year2018
RAAN351.3418
Inclination98.5956
Eccentricity0.0089931
Argument of Perigee298.0899
Mean Anonmoly61.1227
Mean Motion14.53922608
Decay Rate1.5E-07
L11 43610U 18068B 18279.22271274 .00000015 00000-0 15666-4 0 9995
L22 43610 98.5956 351.3418 0089931 298.0899 61.1227 14.53922608 4225

Live tracking and technical data element details for CZ-2C R/B (NORAD 43610). CZ-2C R/B can be tracked NOW for your location showing map with azimuth and elevation plus other details from your city location.

Track the satellite on the map from your city or location and see movement details for azimuth, elevation, latitude, longitude, range, height, and movement on the map or in text.







IsCatalogInMostPopularTable: catalog: 43610, numindb: 25
Update: records affected: 1



GetName: 43610 CZ-2C R/B

Hit Count: updated at: Tue, 20 Nov 2018 12:24:26 GMT